Print

CHIHRRCWA 000
TTAA00 KDVN 300304
HOURLY WEATHER ROUNDUP
NATIONAL WEATHER SERVICE QUAD CITIES IA IL
900 PM CST THU JAN 29 2015

Note: "Fair" indicates few or no clouds below 12,000 feet with no
significant weather and/or obstructions to visibility.

* - These stations are not NWS stations...and not subject to NWS
quality control.  Some stations do not report weather such as fog.

...NORTHEAST IOWA..................................................

  
CITY           SKY/WX    TMP DP  RH WIND       PRES   REMARKS
DECORAH *      CLOUDY    25  14  63 NW13G20   30.38R WCI  13          
WATERLOO       CLOUDY    26  17  68 NW24      30.43R WCI  11          
OELWEIN *      CLOUDY    25  18  74 N22       30.41R WCI  10          
INDEPENDENCE * CLOUDY    27  19  74 NW22G29   30.41R WCI  12          
DUBUQUE        CLOUDY    27  17  66 NW20G35   30.34R WCI  13          

...SOUTHWEST AND SOUTH CENTRAL WISCONSIN...........................

  
CITY           SKY/WX    TMP DP  RH WIND       PRES   REMARKS
PRAIRIE DU CHI MOCLDY    28  14  55 NW13G22   30.38R WCI  18          
BOSCOBEL       CLOUDY    29  14  53 NW13      30.37R WCI  19          
LONE ROCK      CLOUDY    30  16  56 N15       30.34R WCI  19          
MINERAL POINT* NOT AVBL                                               
MONROE *       NOT AVBL                                               
JANESVILLE *   CLOUDY    32  19  59 NW16G22   30.27R WCI  21          

...EAST CENTRAL IOWA...............................................

  
CITY           SKY/WX    TMP DP  RH WIND       PRES   REMARKS
MARSHALLTOWN   MOCLDY    24  17  74 NW17      30.45R WCI  11          
NEWTON *       NOT AVBL                                               
VINTON *       CLOUDY    28  19  68 NW16      30.42R WCI  16          
CEDAR RAPIDS   CLOUDY    27  19  72 NW18G25   30.40R WCI  14          
IOWA CITY      CLOUDY    29  19  66 NW20G26   30.43R WCI  16          
MONTICELLO *   CLOUDY    28  21  74 NW17      30.37R WCI  16          
CLINTON *      CLOUDY    30  21  69 N13       30.37R WCI  20          
DAVENPORT      CLOUDY    30  20  66 NW20G29   30.36R WCI  17          

...NORTHWEST ILLINOIS..............................................

  
CITY           SKY/WX    TMP DP  RH WIND       PRES   REMARKS
FREEPORT *     CLOUDY    32  22  66 NW18G25   30.31R WCI  20          
ROCKFORD       CLOUDY    33  19  56 N16G23    30.29R WCI  23          
SAVANNA *      CLOUDY    32  20  62 NW13G23   30.33R WCI  23          
STERLING/R.F.* CLOUDY    34  21  60 NW14G20   30.31R WCI  24          
ROCHELLE *     CLOUDY    32  24  71 NW13      30.28R WCI  23          
MOLINE         CLOUDY    32  21  64 NW17G26   30.36R WCI  21          
PERU *         NOT AVBL                                               

...SOUTHEAST IOWA AND NORTHEAST MISSOURI...........................

  
CITY           SKY/WX    TMP DP  RH WIND       PRES   REMARKS
KNOXVILLE *    PTCLDY    28  19  69 NW16G24   30.45R WCI  17          
OTTUMWA        CLOUDY    28  20  71 NW21      30.45R WCI  15          
FAIRFIELD *    CLOUDY    28  21  74 NW20      30.43R WCI  15          
WASHINGTON *   CLOUDY    30  25  80 NW17G23   30.42R WCI  18          
MT PLEASANT *  CLOUDY    30  21  68 NW17G25   30.42R WCI  18          
BURLINGTON     CLOUDY    33  23  66 NW17G24   30.39R WCI  22          
KIRKSVILLE     CLOUDY    32  22  66 NW12G21   30.45R WCI  23          

...WESTERN ILLINOIS................................................

  
CITY           SKY/WX    TMP DP  RH WIND       PRES   REMARKS
MACOMB *       CLOUDY    33  26  74 NW13G20   30.40R WCI  24          
GALESBURG *    CLOUDY    32  25  74 NW20G25   30.35R WCI  20          
PEORIA         CLOUDY    35  24  64 NW14G21   30.34R WCI  26          
QUINCY         CLOUDY    33  23  66 N18       30.40S WCI  22          

END...
  

USA.gov is the U.S. government's official web portal to all federal, state and local government web resources and services.